| time (UTC) | temp C | wind direction | speed KPH | gust KPH | rain 1hr cm | rain 24hr cm | rain mn cm | humidity % | barometer mb |
| 20260505092745 | 12 | 337 | 9.7 | 14.5 | 0.00 | 0.00 | 0.00 | 91 | 1013.2 |
| 20260505092244 | 12 | 351 | 4.8 | 4.8 | 0.00 | 0.00 | 0.00 | 91 | 1013.2 |
| 20260505091741 | 12 | 296 | 3.2 | 3.2 | 0.00 | 0.00 | 0.00 | 91 | 1013.1 |
| 20260505091239 | 12 | 314 | 1.6 | 3.2 | 0.00 | 0.00 | 0.00 | 91 | 1013.0 |
| 20260505090736 | 12 | 309 | 4.8 | 8.0 | 0.00 | 0.00 | 0.00 | 91 | 1013.0 |
| 20260505090234 | 12 | 311 | 3.2 | 3.2 | 0.00 | 0.00 | 0.00 | 91 | 1013.1 |
| 20260505085731 | 12 | 196 | 1.6 | 3.2 | 0.00 | 0.00 | 0.00 | 91 | 1012.8 |
| 20260505085230 | 12 | 323 | 3.2 | 3.2 | 0.00 | 0.00 | 0.00 | 91 | 1013.0 |
| 20260505084726 | 12 | 333 | 3.2 | 3.2 | 0.00 | 0.00 | 0.00 | 91 | 1012.9 |
| 20260505084226 | 12 | 334 | 4.8 | 8.0 | 0.00 | 0.00 | 0.00 | 91 | 1012.7 |
| 20260505083722 | 12 | 328 | 8.0 | 11.3 | 0.00 | 0.00 | 0.00 | 91 | 1012.8 |
| 20260505083219 | 12 | 293 | 3.2 | 4.8 | 0.00 | 0.00 | 0.00 | 91 | 1012.9 |
| 20260505082715 | 12 | 313 | 3.2 | 4.8 | 0.00 | 0.00 | 0.00 | 91 | 1012.7 |
| 20260505082213 | 12 | 152 | 8.0 | 11.3 | 0.00 | 0.00 | 0.00 | 91 | 1012.7 |
| 20260505081708 | 12 | 345 | 4.8 | 4.8 | 0.00 | 0.00 | 0.00 | 91 | 1012.5 |
| 20260505081206 | 12 | 312 | 3.2 | 4.8 | 0.00 | 0.00 | 0.00 | 91 | 1012.7 |
| 20260505080703 | 12 | 318 | 4.8 | 4.8 | 0.00 | 0.00 | 0.00 | 91 | 1012.6 |
| 20260505080158 | 12 | 313 | 4.8 | 4.8 | 0.00 | 0.00 | 0.00 | 91 | 1012.5 |
| 20260505075654 | 12 | 303 | 8.0 | 9.7 | 0.00 | 0.00 | 0.00 | 91 | 1012.5 |
| 20260505075151 | 12 | 301 | 8.0 | 9.7 | 0.00 | 0.00 | 0.00 | 91 | 1012.5 |
| 20260505074648 | 12 | 303 | 1.6 | 4.8 | 0.00 | 0.00 | 0.00 | 91 | 1012.6 |
| 20260505074145 | 12 | 310 | 3.2 | 3.2 | 0.00 | 0.00 | 0.00 | 91 | 1012.7 |
| 20260505073643 | 12 | 345 | 3.2 | 4.8 | 0.00 | 0.00 | 0.00 | 91 | 1012.3 |
| 20260505073141 | 12 | 333 | 1.6 | 3.2 | 0.00 | 0.00 | 0.00 | 91 | 1012.5 |
| 20260505072636 | 12 | 324 | 4.8 | 8.0 | 0.00 | 0.00 | 0.00 | 91 | 1012.1 |
| 20260505072133 | 12 | 170 | 0.0 | 0.0 | 0.00 | 0.00 | 0.00 | 91 | 1012.3 |
| 20260505071628 | 12 | 343 | 4.8 | 4.8 | 0.00 | 0.00 | 0.00 | 91 | 1012.3 |
| 20260505071127 | 12 | 311 | 3.2 | 4.8 | 0.00 | 0.00 | 0.00 | 91 | 1012.1 |
| 20260505070624 | 12 | 331 | 3.2 | 4.8 | 0.00 | 0.00 | 0.00 | 91 | 1012.2 |
| 20260505070120 | 12 | 309 | 6.4 | 9.7 | 0.00 | 0.00 | 0.00 | 91 | 1012.1 |
| 20260505065616 | 12 | 323 | 4.8 | 8.0 | 0.00 | 0.00 | 0.00 | 91 | 1012.0 |
| 20260505065112 | 12 | 307 | 3.2 | 3.2 | 0.00 | 0.00 | 0.00 | 91 | 1011.8 |
| 20260505064609 | 12 | 13 | 9.7 | 14.5 | 0.00 | 0.00 | 0.00 | 91 | 1011.7 |
| 20260505064108 | 12 | 33 | 3.2 | 4.8 | 0.00 | 0.00 | 0.00 | 91 | 1011.6 |
| 20260505063605 | 12 | 344 | 6.4 | 9.7 | 0.00 | 0.00 | 0.00 | 91 | 1011.6 |
| 20260505063100 | 12 | 251 | 3.2 | 4.8 | 0.00 | 0.00 | 0.00 | 91 | 1011.6 |
| 20260505062557 | 12 | 206 | 1.6 | 3.2 | 0.00 | 0.00 | 0.00 | 91 | 1011.5 |
| 20260505062055 | 12 | 330 | 4.8 | 9.7 | 0.00 | 0.00 | 0.00 | 91 | 1011.7 |
| 20260505061552 | 12 | 297 | 4.8 | 4.8 | 0.00 | 0.00 | 0.00 | 91 | 1011.3 |
| 20260505061050 | 12 | 320 | 12.9 | 17.7 | 0.00 | 0.00 | 0.00 | 91 | 1011.5 |
| 20260505060547 | 13 | 316 | 6.4 | 8.0 | 0.00 | 0.00 | 0.00 | 90 | 1011.3 |
| 20260505060044 | 13 | 312 | 3.2 | 3.2 | 0.00 | 0.00 | 0.00 | 91 | 1011.4 |
| 20260505055539 | 12 | 313 | 6.4 | 9.7 | 0.00 | 0.00 | 0.00 | 91 | 1011.2 |
| 20260505055036 | 12 | 315 | 9.7 | 12.9 | 0.00 | 0.00 | 0.00 | 91 | 1011.3 |
| 20260505054533 | 12 | 212 | 1.6 | 1.6 | 0.00 | 0.00 | 0.00 | 91 | 1011.5 |
| 20260505054031 | 12 | 292 | 8.0 | 9.7 | 0.00 | 0.00 | 0.00 | 91 | 1011.2 |
| 20260505053528 | 12 | 263 | 4.8 | 8.0 | 0.00 | 0.00 | 0.00 | 91 | 1011.2 |
| 20260505053025 | 12 | 314 | 4.8 | 4.8 | 0.00 | 0.00 | 0.00 | 91 | 1011.5 |
| 20260505052522 | 12 | 293 | 4.8 | 8.0 | 0.00 | 0.00 | 0.00 | 90 | 1011.6 |
| 20260505052019 | 12 | 211 | 3.2 | 3.2 | 0.00 | 0.00 | 0.00 | 90 | 1011.3 |
| 20260505051516 | 13 | 324 | 4.8 | 4.8 | 0.00 | 0.00 | 0.00 | 90 | 1011.3 |
| 20260505051014 | 13 | 237 | 4.8 | 8.0 | 0.00 | 0.00 | 0.00 | 89 | 1011.3 |
| 20260505050512 | 13 | 295 | 8.0 | 9.7 | 0.00 | 0.00 | 0.00 | 89 | 1011.1 |
| 20260505041439 | 15 | 330 | 6.4 | 9.7 | 0.00 | 0.00 | 0.00 | 84 | 1010.8 |
| 20260505040937 | 15 | 318 | 4.8 | 8.0 | 0.00 | 0.00 | 0.00 | 83 | 1010.6 |
| 20260505040434 | 15 | 322 | 4.8 | 4.8 | 0.00 | 0.00 | 0.00 | 83 | 1010.7 |
| 20260505035931 | 15 | 311 | 4.8 | 8.0 | 0.00 | 0.00 | 0.00 | 82 | 1010.6 |
| 20260505035427 | 15 | 298 | 4.8 | 9.7 | 0.00 | 0.00 | 0.00 | 81 | 1010.6 |
| 20260505034924 | 15 | 216 | 0.0 | 1.6 | 0.00 | 0.00 | 0.00 | 80 | 1010.5 |
| 20260505034420 | 16 | 324 | 3.2 | 8.0 | 0.00 | 0.00 | 0.00 | 79 | 1010.1 |
| 20260505033918 | 16 | 358 | 1.6 | 3.2 | 0.00 | 0.00 | 0.00 | 79 | 1010.2 |
| 20260505033414 | 16 | 193 | 6.4 | 8.0 | 0.00 | 0.00 | 0.00 | 78 | 1010.0 |
| 20260505032913 | 16 | 14 | 4.8 | 8.0 | 0.00 | 0.00 | 0.00 | 77 | 1009.8 |
| 20260505032409 | 16 | 108 | 0.0 | 1.6 | 0.00 | 0.00 | 0.00 | 77 | 1009.8 |
| 20260505031906 | 16 | 351 | 8.0 | 9.7 | 0.00 | 0.00 | 0.00 | 76 | 1009.8 |
| 20260505031403 | 17 | 198 | 0.0 | 1.6 | 0.00 | 0.00 | 0.00 | 76 | 1009.6 |
| 20260505030900 | 17 | 329 | 8.0 | 14.5 | 0.00 | 0.00 | 0.00 | 75 | 1009.7 |
| 20260505030356 | 17 | 252 | 3.2 | 3.2 | 0.00 | 0.00 | 0.00 | 74 | 1009.7 |
| 20260505025851 | 17 | 347 | 9.7 | 11.3 | 0.00 | 0.00 | 0.00 | 74 | 1009.5 |
| 20260505025349 | 17 | 325 | 6.4 | 9.7 | 0.00 | 0.00 | 0.00 | 73 | 1009.5 |
| 20260505024848 | 18 | 254 | 0.0 | 1.6 | 0.00 | 0.00 | 0.00 | 73 | 1009.3 |
| 20260505024345 | 18 | 334 | 6.4 | 8.0 | 0.00 | 0.00 | 0.00 | 72 | 1009.5 |
| 20260505023842 | 18 | 303 | 4.8 | 4.8 | 0.00 | 0.00 | 0.00 | 72 | 1009.2 |
| 20260505023339 | 18 | 246 | 4.8 | 8.0 | 0.00 | 0.00 | 0.00 | 71 | 1009.3 |
| 20260505022836 | 18 | 303 | 1.6 | 3.2 | 0.00 | 0.00 | 0.00 | 70 | 1009.1 |
| 20260505022333 | 19 | 318 | 8.0 | 9.7 | 0.00 | 0.00 | 0.00 | 70 | 1009.1 |
| 20260505021830 | 19 | 262 | 4.8 | 8.0 | 0.00 | 0.00 | 0.00 | 69 | 1009.2 |
| 20260505021327 | 20 | 209 | 3.2 | 3.2 | 0.00 | 0.00 | 0.00 | 69 | 1009.1 |
| 20260505020822 | 20 | 310 | 12.9 | 16.1 | 0.00 | 0.00 | 0.00 | 68 | 1009.2 |
| 20260505020318 | 20 | 315 | 4.8 | 8.0 | 0.00 | 0.00 | 0.00 | 67 | 1009.0 |
| 20260505015815 | 20 | 313 | 4.8 | 9.7 | 0.00 | 0.00 | 0.00 | 67 | 1009.1 |
| 20260505015312 | 20 | 321 | 3.2 | 4.8 | 0.00 | 0.00 | 0.00 | 67 | 1009.1 |
| 20260505014810 | 20 | 248 | 8.0 | 11.3 | 0.00 | 0.00 | 0.00 | 66 | 1009.0 |
| 20260505014307 | 20 | 259 | 3.2 | 3.2 | 0.00 | 0.00 | 0.00 | 66 | 1009.1 |
| 20260505013803 | 21 | 321 | 6.4 | 11.3 | 0.00 | 0.00 | 0.00 | 65 | 1009.0 |
| 20260505013300 | 21 | 307 | 9.7 | 11.3 | 0.00 | 0.00 | 0.00 | 64 | 1009.0 |
| 20260505012759 | 21 | 303 | 6.4 | 9.7 | 0.00 | 0.00 | 0.00 | 65 | 1008.8 |
| 20260505012256 | 21 | 312 | 3.2 | 4.8 | 0.00 | 0.00 | 0.00 | 65 | 1008.9 |
| 20260505011751 | 22 | 306 | 6.4 | 9.7 | 0.00 | 0.00 | 0.00 | 63 | 1009.3 |
| 20260505011249 | 22 | 275 | 4.8 | 8.0 | 0.00 | 0.00 | 0.00 | 63 | 1009.1 |
| 20260505010744 | 22 | 284 | 6.4 | 8.0 | 0.00 | 0.00 | 0.00 | 63 | 1009.0 |
| 20260505010241 | 22 | 341 | 3.2 | 4.8 | 0.00 | 0.00 | 0.00 | 63 | 1008.9 |
| 20260505005737 | 22 | 342 | 3.2 | 3.2 | 0.00 | 0.00 | 0.00 | 65 | 1009.1 |
| 20260505005234 | 22 | 320 | 4.8 | 4.8 | 0.00 | 0.00 | 0.00 | 67 | 1008.9 |
| 20260505004731 | 22 | 330 | 1.6 | 1.6 | 0.00 | 0.00 | 0.00 | 68 | 1009.0 |
| 20260505004228 | 22 | 56 | 0.0 | 1.6 | 0.00 | 0.00 | 0.00 | 68 | 1009.2 |
| 20260505003725 | 22 | 116 | 0.0 | 0.0 | 0.00 | 0.00 | 0.00 | 69 | 1009.1 |
| 20260505003223 | 22 | 84 | 0.0 | 1.6 | 0.00 | 0.00 | 0.00 | 68 | 1008.9 |
| 20260505002719 | 22 | 170 | 0.0 | 1.6 | 0.00 | 0.00 | 0.00 | 68 | 1009.2 |
| 20260505002216 | 22 | 136 | 3.2 | 4.8 | 0.00 | 0.00 | 0.00 | 69 | 1009.2 |
| 20260505001714 | 22 | 159 | 1.6 | 3.2 | 0.00 | 0.00 | 0.00 | 68 | 1009.0 |
| 20260505001211 | 22 | 115 | 8.0 | 11.3 | 0.00 | 0.00 | 0.00 | 68 | 1009.1 |
| 20260505000708 | 22 | 100 | 4.8 | 8.0 | 0.00 | 0.00 | 0.00 | 69 | 1009.4 |
| 20260505000206 | 22 | 172 | 4.8 | 8.0 | 0.00 | 0.00 | 0.00 | 69 | 1009.2 |
| 20260504235702 | 22 | 139 | 4.8 | 4.8 | 0.00 | 0.00 | 0.00 | 68 | 1009.0 |
| 20260504235158 | 22 | 106 | 3.2 | 4.8 | 0.00 | 0.00 | 0.00 | 68 | 1009.2 |
| 20260504234656 | 22 | 139 | 4.8 | 4.8 | 0.00 | 0.00 | 0.00 | 68 | 1009.4 |
| 20260504234153 | 22 | 137 | 3.2 | 3.2 | 0.00 | 0.00 | 0.00 | 69 | 1009.2 |
| 20260504233649 | 22 | 153 | 4.8 | 8.0 | 0.00 | 0.00 | 0.00 | 69 | 1009.2 |
| 20260504233145 | 22 | 84 | 4.8 | 9.7 | 0.00 | 0.00 | 0.00 | 69 | 1009.1 |
| 20260504232643 | 22 | 79 | 4.8 | 9.7 | 0.00 | 0.00 | 0.00 | 69 | 1009.2 |
| 20260504232139 | 22 | 111 | 8.0 | 11.3 | 0.00 | 0.00 | 0.00 | 68 | 1009.3 |
| 20260504231636 | 22 | 130 | 8.0 | 9.7 | 0.00 | 0.00 | 0.00 | 68 | 1009.1 |
| 20260504231132 | 22 | 145 | 6.4 | 11.3 | 0.00 | 0.00 | 0.00 | 67 | 1009.1 |
| 20260504230629 | 22 | 118 | 6.4 | 8.0 | 0.00 | 0.00 | 0.00 | 67 | 1009.3 |
| 20260504230127 | 22 | 164 | 8.0 | 9.7 | 0.00 | 0.00 | 0.00 | 67 | 1009.4 |
| 20260504225625 | 22 | 101 | 4.8 | 8.0 | 0.00 | 0.00 | 0.00 | 67 | 1009.5 |
| 20260504225121 | 22 | 112 | 6.4 | 8.0 | 0.00 | 0.00 | 0.00 | 67 | 1009.3 |
| 20260504224618 | 22 | 199 | 4.8 | 4.8 | 0.00 | 0.00 | 0.00 | 67 | 1009.4 |
| 20260504224115 | 22 | 133 | 4.8 | 8.0 | 0.00 | 0.00 | 0.00 | 69 | 1009.8 |
| 20260504223612 | 21 | 138 | 3.2 | 8.0 | 0.00 | 0.00 | 0.00 | 69 | 1009.7 |
| 20260504223108 | 21 | 134 | 4.8 | 4.8 | 0.00 | 0.00 | 0.00 | 68 | 1009.7 |
| 20260504222605 | 22 | 160 | 6.4 | 8.0 | 0.00 | 0.00 | 0.00 | 68 | 1009.7 |
| 20260504222102 | 22 | 116 | 6.4 | 9.7 | 0.00 | 0.00 | 0.00 | 68 | 1009.9 |
| 20260504221559 | 21 | 125 | 4.8 | 4.8 | 0.00 | 0.00 | 0.00 | 70 | 1009.9 |
| 20260504221056 | 21 | 128 | 8.0 | 9.7 | 0.00 | 0.00 | 0.00 | 68 | 1009.9 |
| 20260504220552 | 22 | 109 | 4.8 | 9.7 | 0.00 | 0.00 | 0.00 | 69 | 1010.1 |
| 20260504220049 | 22 | 121 | 8.0 | 11.3 | 0.00 | 0.00 | 0.00 | 69 | 1010.3 |
| 20260504215546 | 21 | 194 | 4.8 | 4.8 | 0.00 | 0.00 | 0.00 | 71 | 1010.3 |
| 20260504215044 | 21 | 205 | 9.7 | 11.3 | 0.00 | 0.00 | 0.00 | 68 | 1010.1 |
| 20260504214539 | 21 | 167 | 4.8 | 4.8 | 0.00 | 0.00 | 0.00 | 70 | 1010.2 |
| 20260504214036 | 21 | 160 | 6.4 | 9.7 | 0.00 | 0.00 | 0.00 | 71 | 1010.2 |
| 20260504213532 | 21 | 106 | 6.4 | 9.7 | 0.00 | 0.00 | 0.00 | 70 | 1010.5 |
| 20260504213030 | 21 | 84 | 4.8 | 8.0 | 0.00 | 0.00 | 0.00 | 71 | 1010.6 |
| 20260504212525 | 21 | 165 | 4.8 | 8.0 | 0.00 | 0.00 | 0.00 | 70 | 1010.5 |
| 20260504212023 | 21 | 213 | 4.8 | 4.8 | 0.00 | 0.00 | 0.00 | 70 | 1010.8 |
| 20260504211520 | 21 | 177 | 4.8 | 8.0 | 0.00 | 0.00 | 0.00 | 70 | 1010.5 |
| 20260504211017 | 21 | 107 | 4.8 | 4.8 | 0.00 | 0.00 | 0.00 | 70 | 1010.8 |
| 20260504210513 | 21 | 104 | 6.4 | 11.3 | 0.00 | 0.00 | 0.00 | 70 | 1010.8 |
| 20260504210010 | 20 | 101 | 9.7 | 12.9 | 0.00 | 0.00 | 0.00 | 69 | 1010.9 |
| 20260504205508 | 21 | 214 | 3.2 | 4.8 | 0.00 | 0.00 | 0.00 | 71 | 1010.7 |
| 20260504205006 | 20 | 179 | 8.0 | 9.7 | 0.00 | 0.00 | 0.00 | 70 | 1010.9 |
| 20260504204504 | 21 | 104 | 6.4 | 11.3 | 0.00 | 0.00 | 0.00 | 70 | 1011.0 |
| 20260504204003 | 21 | 150 | 4.8 | 4.8 | 0.00 | 0.00 | 0.00 | 71 | 1011.1 |
| 20260504203500 | 21 | 163 | 4.8 | 4.8 | 0.00 | 0.00 | 0.00 | 71 | 1011.2 |
| 20260504202956 | 20 | 159 | 4.8 | 9.7 | 0.00 | 0.00 | 0.00 | 71 | 1011.2 |
| 20260504202453 | 20 | 125 | 6.4 | 9.7 | 0.00 | 0.00 | 0.00 | 70 | 1011.3 |
| 20260504201950 | 21 | 136 | 8.0 | 11.3 | 0.00 | 0.00 | 0.00 | 69 | 1011.3 |
| 20260504201447 | 20 | 175 | 3.2 | 4.8 | 0.00 | 0.00 | 0.00 | 70 | 1011.3 |
| 20260504200944 | 20 | 132 | 9.7 | 11.3 | 0.00 | 0.00 | 0.00 | 70 | 1011.4 |
| 20260504200441 | 20 | 201 | 6.4 | 9.7 | 0.00 | 0.00 | 0.00 | 71 | 1011.3 |
| 20260504195937 | 20 | 101 | 6.4 | 11.3 | 0.00 | 0.00 | 0.00 | 71 | 1011.4 |
| 20260504195433 | 20 | 116 | 8.0 | 12.9 | 0.00 | 0.00 | 0.00 | 73 | 1011.5 |
| 20260504194930 | 20 | 189 | 8.0 | 9.7 | 0.00 | 0.00 | 0.00 | 71 | 1011.7 |
| 20260504194426 | 20 | 88 | 8.0 | 11.3 | 0.00 | 0.00 | 0.00 | 72 | 1011.5 |
| 20260504193922 | 20 | 349 | 6.4 | 9.7 | 0.00 | 0.00 | 0.00 | 73 | 1011.5 |
| 20260504193419 | 20 | 136 | 4.8 | 8.0 | 0.00 | 0.00 | 0.00 | 72 | 1011.3 |
| 20260504192918 | 20 | 120 | 6.4 | 9.7 | 0.00 | 0.00 | 0.00 | 73 | 1011.6 |
| 20260504192415 | 20 | 187 | 1.6 | 3.2 | 0.00 | 0.00 | 0.00 | 73 | 1011.8 |
| 20260504191914 | 20 | 133 | 3.2 | 9.7 | 0.00 | 0.00 | 0.00 | 72 | 1011.5 |
| 20260504191412 | 20 | 206 | 4.8 | 8.0 | 0.00 | 0.00 | 0.00 | 73 | 1011.8 |
| 20260504190906 | 20 | 144 | 3.2 | 4.8 | 0.00 | 0.00 | 0.00 | 74 | 1011.7 |
| 20260504190403 | 20 | 64 | 1.6 | 3.2 | 0.00 | 0.00 | 0.00 | 76 | 1011.8 |
| 20260504185900 | 19 | 171 | 8.0 | 11.3 | 0.00 | 0.00 | 0.00 | 73 | 1011.8 |
| 20260504185357 | 20 | 112 | 6.4 | 9.7 | 0.00 | 0.00 | 0.00 | 73 | 1012.0 |
| 20260504184853 | 20 | 112 | 3.2 | 4.8 | 0.00 | 0.00 | 0.00 | 72 | 1012.0 |
| 20260504184348 | 20 | 86 | 1.6 | 3.2 | 0.00 | 0.00 | 0.00 | 75 | 1011.9 |
| 20260504183844 | 19 | 105 | 3.2 | 4.8 | 0.00 | 0.00 | 0.00 | 74 | 1012.0 |
| 20260504183342 | 19 | 139 | 8.0 | 12.9 | 0.00 | 0.00 | 0.00 | 73 | 1012.0 |
| 20260504182840 | 20 | 151 | 4.8 | 8.0 | 0.00 | 0.00 | 0.00 | 72 | 1011.9 |
| 20260504182337 | 19 | 120 | 4.8 | 4.8 | 0.00 | 0.00 | 0.00 | 73 | 1011.8 |
| 20260504181833 | 18 | 72 | 6.4 | 8.0 | 0.00 | 0.00 | 0.00 | 73 | 1011.8 |
| 20260504181331 | 18 | 103 | 9.7 | 11.3 | 0.00 | 0.00 | 0.00 | 73 | 1011.9 |
| 20260504180830 | 19 | 181 | 4.8 | 8.0 | 0.00 | 0.00 | 0.00 | 72 | 1011.9 |
| 20260504180328 | 19 | 121 | 1.6 | 3.2 | 0.00 | 0.00 | 0.00 | 74 | 1011.9 |
| 20260504175826 | 18 | 205 | 6.4 | 9.7 | 0.00 | 0.00 | 0.00 | 74 | 1011.9 |
| 20260504175322 | 18 | 91 | 1.6 | 3.2 | 0.00 | 0.00 | 0.00 | 75 | 1012.2 |
| 20260504174821 | 18 | 123 | 4.8 | 8.0 | 0.00 | 0.00 | 0.00 | 75 | 1012.2 |
| 20260504174318 | 18 | 116 | 6.4 | 9.7 | 0.00 | 0.00 | 0.00 | 76 | 1012.1 |
| 20260504173814 | 18 | 104 | 8.0 | 11.3 | 0.00 | 0.00 | 0.00 | 75 | 1011.9 |
| 20260504173311 | 18 | 38 | 4.8 | 8.0 | 0.00 | 0.00 | 0.00 | 75 | 1012.0 |
| 20260504172808 | 18 | 84 | 1.6 | 1.6 | 0.00 | 0.00 | 0.00 | 78 | 1012.0 |
| 20260504172305 | 18 | 82 | 4.8 | 8.0 | 0.00 | 0.00 | 0.00 | 76 | 1012.0 |
| 20260504171800 | 19 | 144 | 4.8 | 4.8 | 0.00 | 0.00 | 0.00 | 73 | 1012.1 |
| 20260504171258 | 18 | 104 | 1.6 | 3.2 | 0.00 | 0.00 | 0.00 | 75 | 1011.9 |
| 20260504170755 | 19 | 66 | 0.0 | 1.6 | 0.00 | 0.00 | 0.00 | 73 | 1012.0 |
| 20260504170252 | 18 | 70 | 0.0 | 1.6 | 0.00 | 0.00 | 0.00 | 75 | 1012.0 |
| 20260504160210 | 16 | 53 | 1.6 | 3.2 | 0.00 | 0.00 | 0.00 | 77 | 1011.8 |
| 20260504151138 | 16 | 28 | 1.6 | 3.2 | 0.00 | 0.00 | 0.00 | 79 | 1011.3 |
| 20260504150636 | 16 | 338 | 4.8 | 4.8 | 0.00 | 0.00 | 0.00 | 79 | 1011.6 |
| 20260504150132 | 16 | 307 | 4.8 | 4.8 | 0.00 | 0.00 | 0.00 | 80 | 1011.4 |
| 20260504141101 | 15 | 291 | 4.8 | 4.8 | 0.00 | 0.00 | 0.00 | 83 | 1010.8 |
| 20260504140558 | 15 | 304 | 6.4 | 8.0 | 0.00 | 0.00 | 0.00 | 83 | 1010.9 |
| 20260504130522 | 13 | 303 | 4.8 | 8.0 | 0.00 | 0.00 | 0.00 | 85 | 1009.7 |
| 20260504110403 | 16 | 329 | 6.4 | 9.7 | 0.00 | 0.00 | 0.00 | 77 | 1008.0 |
| 20260504100320 | 17 | 278 | 4.8 | 8.0 | 0.00 | 0.00 | 0.00 | 72 | 1007.3 |